Simultaneous Nadir Overpasses (SNOs) Predictions

Prediction of SNOs between GOES-14 and AQUA Satellite Orbit:

Table of predicted SNOs for the next 14.0 days since TLE Epoch: 3/12/2022
Index Date Time (GOES-14) GOES-14 Lat,Lon AQUA Lat,Lon Distance(km) Time Diff (sec)
1 03/12/2022 08:35:03 0.09,-104.58 0.02,-104.18 45.56 80
2 03/14/2022 08:22:46 0.10,-104.58 -0.65,-101.20 385.29 80
3 03/14/2022 20:44:08 -0.10,-104.43 -0.49,-106.37 220.29 80
4 03/16/2022 20:29:10 -0.10,-104.43 0.13,-103.38 119.07 80
5 03/17/2022 08:50:24 0.10,-104.56 0.95,-108.53 452.08 80
6 03/18/2022 20:16:52 -0.10,-104.42 0.78,-100.39 458.75 80
7 03/19/2022 08:38:06 0.10,-104.56 0.30,-105.54 111.82 80
8 03/21/2022 08:28:27 0.10,-104.56 -0.30,-102.54 228.26 80
9 03/21/2022 20:49:49 -0.10,-104.44 -0.82,-107.72 373.37 80
10 03/23/2022 20:37:31 -0.10,-104.43 -0.14,-104.74 34.23 80
11 03/25/2022 20:22:31 -0.11,-104.42 0.44,-101.73 304.87 80
